Albuquerque, NM

8:28 AM MST on January 22, 2018 (GMT -0700)
Albuquerque International Sunport

Weather History for KABQ - March, 2014

Change the Weather History Date:

Sunday, March 2, 2014

  Actual Average Record
Temperature  
Mean Temperature 47 °F 45 °F  
Max Temperature 57 °F 57 °F 76 °F (1904)
Min Temperature 37 °F 33 °F 6 °F (1922)
Degree Days  
Heating Degree Days 18 20  
Month to date heating degree days 33 40  
Since 1 July heating degree days 3176 3343  
Cooling Degree Days 0 0  
Month to date cooling degree days 0 0  
Year to date cooling degree days 0 0  
Moisture  
Dew Point 31 °F    
Average Humidity 59    
Maximum Humidity 89    
Minimum Humidity 28    
Precipitation  
Precipitation 0.02 in 0.01 in 0.35 in (1915)
Month to date precipitation 0.06 0.03  
Year to date precipitation 0.24 0.89  
Snow  
Snow T in - - ()
Month to date snowfall T  
Since 1 July snowfall 6.6  
Snow Depth 0.00 in    
Sea Level Pressure  
Sea Level Pressure 29.95 in    
Wind  
Wind Speed 12 mph (SW)    
Max Wind Speed 24 mph    
Max Gust Speed 32 mph    
Visibility 10 miles    
Events Rain    
T = Trace of Precipitation, MM = Missing Value Source: NWS Daily Summary

Daily Weather History Graph

Daily Weather History Graph

Search for Another Location

Airport or City:

Trip Planner

Search our weather history database for the weather conditions in past years. The results will help you decide how hot, cold, wet, or windy it might be!

Date:

Astronomy

Mar. 02, 2014 Rise Set
Actual Time 6:34 AM MST 6:03 PM MST
Civil Twilight 6:09 AM MST 6:28 PM MST
Nautical Twilight 5:39 AM MST 6:57 PM MST
Astronomical Twilight 5:10 AM MST 7:27 PM MST
Moon 7:12 AM MST (3/2) 7:56 PM MST (3/2)
Length of Visible Light 12h 19m
Length of Day
11h 28m
Waxing Crescent, 3% of the Moon is Illuminated
Mar 2
Waxing Crescent
Mar 8
First Quarter
Mar 16
Full
Mar 23
Last Quarter
Mar 30
New

Hourly Weather History & Observations

Time (MST) Temp. Windchill Dew Point Humidity Pressure Visibility Wind Dir Wind Speed Gust Speed Precip Events Conditions
12:52 AM 43.0 °F 38.2 °F 39.0 °F 86% 29.85 in 10.0 mi SSE 8.1 mph - 0.01 in Rain Light Rain
1:52 AM 43.0 °F 35.4 °F 39.0 °F 86% 29.83 in 10.0 mi South 16.1 mph - 0.01 in   Overcast
2:52 AM 43.0 °F 38.2 °F 37.0 °F 80% 29.83 in 10.0 mi ESE 8.1 mph - N/A   Overcast
3:52 AM 41.0 °F 38.0 °F 36.0 °F 82% 29.83 in 10.0 mi SE 4.6 mph - N/A   Mostly Cloudy
4:52 AM 43.0 °F 35.7 °F 37.0 °F 80% 29.84 in 10.0 mi South 15.0 mph - N/A   Overcast
5:52 AM 43.0 °F 35.1 °F 37.0 °F 80% 29.85 in 10.0 mi South 17.3 mph - N/A   Overcast
6:52 AM 42.1 °F 33.9 °F 36.0 °F 79% 29.86 in 10.0 mi South 17.3 mph - N/A   Mostly Cloudy
7:52 AM 43.0 °F 36.0 °F 36.0 °F 76% 29.90 in 10.0 mi South 13.8 mph - N/A   Overcast
8:52 AM 45.0 °F 38.2 °F 37.0 °F 74% 29.90 in 10.0 mi SSW 15.0 mph 20.7 mph N/A   Mostly Cloudy
9:52 AM 45.0 °F 36.9 °F 30.9 °F 58% 29.94 in 10.0 mi SW 20.7 mph - N/A   Overcast
10:05 AM 45.0 °F 37.4 °F 30.9 °F 58% 30.01 in 10.0 mi WSW 18.4 mph 23.0 mph 0.00 in Rain Light Rain
10:52 AM 46.0 °F 41.0 °F 30.9 °F 56% 29.96 in 10.0 mi WSW 10.4 mph - 0.00 in   Overcast
11:13 AM 46.0 °F 39.6 °F 34.0 °F 63% 30.03 in 10.0 mi NW 15.0 mph - 0.00 in Rain Light Rain
11:52 AM 48.0 °F - 35.1 °F 61% 29.96 in 10.0 mi West 8.1 mph - 0.00 in   Mostly Cloudy
12:52 PM 51.1 °F - 30.0 °F 44% 29.93 in 10.0 mi WNW 17.3 mph - N/A   Mostly Cloudy
1:52 PM 54.0 °F - 28.0 °F 37% 29.90 in 10.0 mi NW 20.7 mph 32.2 mph N/A   Mostly Cloudy
2:52 PM 55.0 °F - 27.0 °F 34% 29.91 in 10.0 mi NW 19.6 mph 25.3 mph N/A   Mostly Cloudy
3:52 PM 55.9 °F - 25.0 °F 30% 29.91 in 10.0 mi WNW 17.3 mph 21.9 mph N/A   Mostly Cloudy
4:52 PM 55.9 °F - 26.1 °F 32% 29.93 in 10.0 mi NNW 13.8 mph - N/A   Mostly Cloudy
5:52 PM 54.0 °F - 21.9 °F 29% 29.96 in 10.0 mi NW 17.3 mph - N/A   Mostly Cloudy
6:52 PM 51.1 °F - 24.1 °F 35% 30.01 in 10.0 mi WNW 11.5 mph - N/A   Partly Cloudy
7:52 PM 48.0 °F - 24.1 °F 39% 30.05 in 10.0 mi West 5.8 mph - N/A   Partly Cloudy
8:52 PM 44.1 °F - 26.1 °F 49% 30.08 in 10.0 mi Calm Calm - N/A   Partly Cloudy
9:52 PM 39.0 °F 36.8 °F 27.0 °F 62% 30.11 in 10.0 mi ESE 3.5 mph - N/A   Partly Cloudy
10:52 PM 37.0 °F 30.4 °F 27.0 °F 67% 30.12 in 10.0 mi ESE 9.2 mph - N/A   Scattered Clouds
11:52 PM 37.0 °F 33.3 °F 26.1 °F 65% 30.11 in 10.0 mi ESE 4.6 mph - N/A   Scattered Clouds